Location: T. Spence Memorial Observatory
(32.7356°N, 82.2098°W)
Time: 23:40:58
(UTC-05:00)

Daily predictions for brighter satellites

Satellite Brightness Start Highest point End
(mag) Time Altitude Azimuth Time Altitude Azimuth Time Altitude Azimuth
Cosmos 1844 4.2 18:10:00 10° N 18:15:25 40° ENE 18:20:49 10° SE
Cosmos 1674 3.5 18:12:09 10° SSW 18:15:51 56° W 18:19:38 10° N
SKYMED 2 3.8 18:11:52 10° NNE 18:16:06 52° E 18:20:20 10° S
SPOT 3 Rocket 3.6 18:11:03 10° SSE 18:16:11 88° WSW 18:21:22 10° NNW
MSX 3.8 18:10:45 10° SSE 18:16:27 78° ENE 18:22:11 10° N
Elektron 3 4.5 18:14:43 10° NNW 18:18:58 42° NE 18:21:49 10° ESE
Cosmos 1484 Rocket 3.0 18:15:59 10° SSE 18:19:44 49° ENE 18:23:33 10° N
Thor Agena Rocket 4.1 18:15:57 10° N 18:21:07 62° WNW 18:26:12 10° SSW
COSMOS 2428 3.9 18:16:07 10° SW 18:21:33 45° WNW 18:27:01 10° N
Cosmos 1151 Rocket 3.7 18:18:21 10° NNE 18:22:14 33° E 18:26:06 10° SE
Cosmos 1500 Rocket 3.5 18:18:19 10° S 18:22:36 73° E 18:26:56 10° N
Cosmos 1634 Rocket 4.1 18:16:39 10° N 18:22:42 54° E 18:28:42 10° SSE
SEDSat Delta rocket 3.9 18:17:22 10° W 18:23:09 65° SSW 18:28:07 10° ESE
Cosmos 2237 Rocket 2.3 18:19:33 10° S 18:25:02 58° ESE 18:30:33 10° NNE
Cosmos 1125 Rocket 4.1 18:21:33 10° N 18:26:13 32° ENE 18:30:51 10° SE
Cosmos 990 Rocket 4.2 18:22:01 10° NNW 18:27:17 78° WSW 18:32:31 10° S
ALOS 4.0 18:27:58 10° E 18:29:39 12° ENE 18:31:19 10° NE
SL-16 R/B 3.3 18:25:24 10° SSE 18:29:50 24° E 18:34:15 10° NE
Cosmos 44 3.5 18:25:12 10° SSW 18:30:31 74° ESE 18:35:39 10° NNE
BREEZE-M DEB (TANK) 2.6 18:24:57 10° NW 18:31:19 60° NE 18:34:09 10° ESE
IDEFIX/ARIANE 42P 3.9 18:27:23 10° S 18:32:20 45° W 18:37:20 10° NNW
Cosmos 1300 3.0 18:33:02 10° N 18:36:43 43° E 18:40:21 10° SSE
Cosmos 371 Rocket 3.7 18:33:51 10° SSW 18:38:37 65° WNW 18:43:24 10° N
Cosmos 1726 2.3 18:35:10 10° N 18:38:49 48° E 18:42:28 10° SSE
Hubble Space Telescope 2.4 18:35:12 10° WSW 18:38:53 31° SSW 18:42:35 10° SE
NOSS 0 Rocket 4.0 18:33:36 10° SSW 18:39:50 85° WNW 18:46:05 10° NNE
CZ-4 R/B 3.9 18:37:43 10° SSW 18:40:55 24° W 18:44:07 10° NW
BREEZE-M DEB (TANK) 2.9 18:38:32 10° WSW 18:41:14 41° NW 18:43:03 14° NNE
Lacrosse 5 rocket 3.3 18:42:49 10° NNE 18:43:38 11° NNE 18:43:38 11° NNE
FREGAT/IRIS 3.8 18:45:14 10° SE 18:47:34 22° ENE 18:47:34 22° ENE
OTV 4 1.3 18:45:33 10° WNW 18:48:18 34° N 18:49:25 24° NE
CENTAUR R/B 4.3 18:44:22 10° WSW 18:49:23 26° NW 18:54:54 10° N
Meteor 1-11 4.2 18:45:55 10° S 18:51:32 74° E 18:57:14 10° NNE
Resurs 01 Rocket 3.6 18:54:22 13° NNE 18:54:22 13° NNE 18:55:03 10° NNE
OAO 3 Rocket 3.6 18:49:17 10° W 18:54:06 61° SSW 18:58:33 12° ESE
Abrixas rocket 4.0 18:57:42 10° WNW 19:00:43 32° SW 19:03:43 10° SSE
Aureole 2 Rocket 2.4 18:57:54 10° SSW 19:01:23 86° ESE 19:04:38 14° NNE
Meteor 1-28 Rocket 3.8 18:57:51 10° N 19:01:30 57° WNW 19:05:08 10° SSW
Cosmos 1844 Rocket 3.4 18:56:23 10° NNW 19:01:55 57° WSW 19:07:23 10° S
CZ-3A R/B 3.9 18:59:49 10° NNW 19:03:42 24° NE 19:04:52 23° ENE
COSMO-SKYMED 1 4.0 19:00:01 10° N 19:04:02 39° WNW 19:08:03 10° SW
Iridium 4 Rocket 4.5 19:02:25 10° SE 19:05:06 22° ESE 19:05:06 22° ESE
Cosmos 1707 Rocket 4.1 19:03:58 10° NNE 19:07:52 32° E 19:11:45 10° SE
Cosmos 1461 3.0 19:04:57 10° S 19:09:05 51° ESE 19:10:31 34° ENE
SJ-6B 2.8 19:06:58 10° SSE 19:10:54 61° ENE 19:14:57 10° N
Cosmos 1666 Rocket 3.7 19:09:31 10° SSE 19:13:40 48° E 19:15:24 30° NE
Cosmos 2279 Rocket 3.9 19:08:49 10° N 19:15:03 85° E 19:21:17 10° S
Intelsat 5-1 Rocket 3.5 19:13:52 10° SW 19:16:25 23° S 19:18:34 17° SE
Milstar 3 3.5 19:11:27 10° W 19:17:50 50° SSW 19:23:49 16° ESE
Cosmos 2058 3.8 19:14:35 10° SSW 19:18:34 48° W 19:22:33 10° N
FENGYUN 3A 3.8 19:17:34 10° SE 19:22:37 45° ENE 19:27:43 10° N
Cosmos 304 Rocket 3.8 19:19:47 10° SSW 19:24:35 79° WNW 19:28:08 18° NNE
Cosmos 2333 Rocket 3.9 19:20:08 10° WSW 19:25:03 30° WNW 19:29:59 10° N
Cosmos 1703 3.4 19:22:39 10° SSW 19:26:32 72° W 19:29:16 19° N
Cosmos 773 Rocket 4.2 19:25:22 10° S 19:30:14 46° ESE 19:30:20 45° E
Nadezhda 4 Rocket 3.9 19:24:21 10° S 19:30:33 74° E 19:36:50 10° N
Atlas Centaur 2 3.7 19:27:34 10° WSW 19:31:02 20° SSW 19:33:48 11° SSE
Cosmos 2180 Rocket 4.5 19:26:55 10° N 19:33:05 83° W 19:39:18 10° S
METEOR-M 4.5 19:29:47 10° S 19:35:05 67° WSW 19:40:26 10° NNW
Cosmos 372 Rocket 4.1 19:33:07 10° NNW 19:38:12 70° WSW 19:43:15 10° S
Cosmos 1356 Rocket 3.6 19:38:45 10° SSW 19:42:44 65° W 19:43:34 50° NNW
Cosmos 1092 Rocket 3.9 19:41:34 10° S 19:47:50 73° E 19:51:46 25° NNE
Cosmos 2278 Rocket 2.9 19:42:54 10° NNW 19:48:26 54° WSW 19:53:55 10° S
USA 215 3.2 19:45:33 23° SE 19:49:57 86° SW 19:56:32 10° NW
Cosmos 1626 3.4 19:48:26 10° SSW 19:51:57 40° W 19:52:36 37° NW
OAO 1 Rocket 4.4 19:51:42 10° WNW 19:56:48 73° NNW 19:56:48 73° NNW
Aureole 1 Rocket 3.5 19:55:01 10° SSW 19:59:14 77° S 19:59:14 77° S
Haruka 4.3 20:00:19 10° W 20:05:18 82° S 20:09:16 45° E
ALOS 2.8 20:01:58 10° S 20:06:32 56° W 20:11:08 10° NNW
Timation 1 Rocket 4.4 20:02:52 10° NNW 20:08:54 77° WSW 20:10:29 50° S
BREEZE-M DEB (TANK) 3.7 20:05:27 10° SSW 20:35:26 - NE 20:08:58 60° SSE
Spot 2 Rocket 3.9 20:06:58 10° S 20:11:56 59° WSW 20:16:55 10° NNW
SL-16 R/B 3.5 20:08:29 10° SW 20:13:39 37° WNW 20:16:18 24° NNW
ATLAS 2A CENTAUR R/B 4.1 20:11:01 10° SSW 20:11:11 11° SSW 20:11:11 11° SSW
Hubble Space Telescope 3.6 20:17:57 10° SW 20:19:12 12° SSW 20:19:12 12° SSW
Cosmos 2297 4.3 20:21:57 10° NNW 20:27:01 53° W 20:27:01 53° W
Resurs 01 Rocket 4.4 20:24:14 10° SSW 20:31:55 11° NW 20:32:11 10° NW
USA 229 DEB 3.9 20:24:57 10° SW 20:31:45 66° WNW 20:31:47 66° NW
USA 229 3.9 20:25:04 10° SW 20:31:50 67° WNW 20:31:50 67° WNW
H-2A ROCKET BODY 3.9 20:54:29 10° W 21:02:29 35° WSW 21:02:29 35° WSW
